Location: Chandrammap?lem
(16.9200°N, 81.0051°E)
Time: 02:38:02
(UTC+00:00)

SL-24 DEB - Pass Details

Date: 29 May 2024
Orbit: 648 x 683 km, 92.0° (Epoch: 21 June)

Event Time Altitude Azimuth Distance (km) Brightness Sun altitude
Rises 21:54:30 0° 5° (N) 2,957 8.1 -27.4°
Reaches altitude 10° 21:56:43 10° 5° (N) 2,047 7.2 -27.0°
Enters shadow 22:00:37 67° 4° (N) 703 4.3 -26.2°
